Tracking 27420 objects as of 11-Jun-2023
HD Live streaming from Space Station
objects crossing your sky now

EXPLORER 47 (IMP-7)

Track EXPLORER 47 (IMP-7) now!
EXPLORER 47 (IMP-7) is classified as:


NORAD ID: 6197
Int'l Code: 1972-073A
Perigee: 169,406.0 km
Apogee: 266,175.2 km
Inclination: 13.1 °
Period: 17,603.6 minutes
Semi major axis: 224161 km
RCS: Unknown
Launch date: September 23, 1972
Source: United States (US)
Launch site: AIR FORCE EASTERN TEST RANGE (AFETR)
Your satellite tracking list
Your tracking list is empty




NASA's NSSDC Master Catalog

Two Line Element Set (TLE):
1 06197U 72073A   23160.89043875 -.00000989  00000-0  00000-0 0  9995
2 06197  13.1138 146.6908 2158470  73.6014 355.1733  0.08180149  3038
Source of the keplerian elements: AFSPC